{"data":{"norad_id":64865,"intl_designator":"2025-152Z","name":"STARLINK-34544","alt_names":[],"object_type":"PAYLOAD","status":"ACTIVE","operator":null,"country":"US","launch_date":"2025-07-19","launch_site_code":"AFWTR","launch_vehicle":null,"mission":null,"orbit_class":"UNKNOWN","rcs_meters":null,"size_class":null,"mass_kg":null,"dimensions":null,"purposes":["comms"],"wikipedia_slug":null,"has_3d_model":false,"image_url":null,"decayed_at":null,"tle_current":{"epoch":"2026-05-25T03:16:17.626368Z","epoch_age_seconds":57170,"freshness":"FRESH","line1":"1 64865U 25152Z   26145.13631512  .00003121  00000+0  22027-3 0  9996","line2":"2 64865  97.4501   0.5279 0001854  79.7920 280.3516 15.05650982 46929","mean_motion":15.05650982,"eccentricity":0.0001854,"inclination_deg":97.4501,"raan_deg":0.5279,"arg_perigee_deg":79.792,"mean_anomaly_deg":280.3516,"bstar":0.00022027,"rev_number":4692,"period_min":95.639694538452,"perigee_km":548.22375644381,"apogee_km":550.7925272624,"semimajor_km":6927.6451418531,"source":"CELESTRAK","updated_at":"2026-05-25T13:38:20.618257Z"}}}